| time (UTC) | temp F | wind direction | speed MPH | gust MPH | rain 1hr in | rain 24hr in | rain mn in | humidity % | barometer mb |
| 20260510194515 | 59 | 90 | 0.0 | 2.0 | 0.00 | 0.11 | 0.11 | 92 | 1011.8 |
| 20260510194133 | 60 | 90 | 0.0 | 2.0 | 0.00 | 0.55 | 0.14 | 92 | 1012.2 |
| 20260510193131 | 60 | 91 | 0.0 | 0.0 | 0.00 | 0.55 | 0.14 | 92 | 1012.2 |
| 20260510193025 | 60 | 91 | 0.0 | 0.0 | 0.00 | 0.11 | 0.11 | 91 | 1011.9 |
| 20260510192142 | 60 | 90 | 0.0 | 0.0 | 0.00 | 0.55 | 0.14 | 92 | 1012.3 |
| 20260510191526 | 60 | 90 | 0.0 | 0.0 | 0.00 | 0.11 | 0.11 | 91 | 1011.8 |
| 20260510191152 | 61 | 91 | 0.0 | 0.0 | 0.00 | 0.55 | 0.14 | 91 | 1012.1 |
| 20260510190131 | 61 | 90 | 0.0 | 0.0 | 0.00 | 0.55 | 0.14 | 91 | 1012.0 |
| 20260510190006 | 60 | 91 | 0.0 | 1.0 | 0.00 | 0.11 | 0.11 | 90 | 1011.6 |
| 20260510185131 | 61 | 90 | 0.0 | 3.0 | 0.00 | 0.55 | 0.14 | 91 | 1011.9 |
| 20260510184504 | 61 | 91 | 2.0 | 3.0 | 0.00 | 0.11 | 0.11 | 90 | 1011.5 |
| 20260510184153 | 62 | 94 | 3.0 | 3.0 | 0.00 | 0.55 | 0.14 | 91 | 1011.9 |
| 20260510183132 | 62 | 86 | 2.0 | 3.0 | 0.00 | 0.55 | 0.14 | 91 | 1011.9 |
| 20260510183004 | 61 | 86 | 2.0 | 3.0 | 0.00 | 0.11 | 0.11 | 90 | 1011.5 |
| 20260510182132 | 62 | 94 | 2.0 | 3.0 | 0.00 | 0.55 | 0.14 | 90 | 1011.9 |
| 20260510181518 | 62 | 96 | 2.0 | 4.0 | 0.00 | 0.11 | 0.11 | 89 | 1011.5 |
| 20260510181140 | 62 | 91 | 3.0 | 4.0 | 0.00 | 0.55 | 0.14 | 89 | 1011.8 |
| 20260510180144 | 63 | 89 | 3.0 | 4.0 | 0.00 | 0.55 | 0.14 | 88 | 1011.9 |
| 20260510180014 | 62 | 94 | 3.0 | 5.0 | 0.00 | 0.11 | 0.11 | 87 | 1011.5 |
| 20260510175154 | 64 | 82 | 3.0 | 4.0 | 0.00 | 0.55 | 0.14 | 88 | 1011.9 |
| 20260510174512 | 63 | 85 | 3.0 | 6.0 | 0.00 | 0.11 | 0.11 | 87 | 1011.5 |
| 20260510174130 | 64 | 89 | 4.0 | 6.0 | 0.00 | 0.55 | 0.14 | 87 | 1011.9 |
| 20260510173135 | 64 | 84 | 4.0 | 5.0 | 0.00 | 0.55 | 0.14 | 88 | 1011.9 |
| 20260510173008 | 63 | 94 | 4.0 | 5.0 | 0.00 | 0.11 | 0.11 | 87 | 1011.5 |
| 20260510172126 | 64 | 101 | 2.0 | 4.0 | 0.00 | 0.55 | 0.14 | 88 | 1012.0 |
| 20260510171505 | 63 | 91 | 3.0 | 4.0 | 0.00 | 0.11 | 0.11 | 87 | 1011.5 |
| 20260510171138 | 64 | 86 | 3.0 | 4.0 | 0.00 | 0.55 | 0.14 | 87 | 1011.9 |
| 20260510170206 | 64 | 86 | 4.0 | 4.0 | 0.00 | 0.55 | 0.14 | 87 | 1011.9 |
| 20260510170024 | 63 | 87 | 3.0 | 4.0 | 0.00 | 0.11 | 0.11 | 86 | 1011.6 |
| 20260510165137 | 64 | 92 | 3.0 | 4.0 | 0.00 | 0.55 | 0.14 | 87 | 1012.1 |
| 20260510164527 | 63 | 98 | 3.0 | 5.0 | 0.00 | 0.11 | 0.11 | 87 | 1011.7 |
| 20260510164146 | 64 | 89 | 3.0 | 5.0 | 0.00 | 0.55 | 0.14 | 87 | 1012.1 |
| 20260510163155 | 64 | 103 | 5.0 | 6.0 | 0.00 | 0.55 | 0.14 | 88 | 1012.2 |
| 20260510163018 | 63 | 87 | 5.0 | 6.0 | 0.00 | 0.11 | 0.11 | 87 | 1011.8 |
| 20260510162137 | 64 | 84 | 4.0 | 6.0 | 0.00 | 0.55 | 0.14 | 87 | 1012.2 |
| 20260510161516 | 63 | 113 | 4.0 | 7.0 | 0.00 | 0.11 | 0.11 | 88 | 1011.8 |
| 20260510161128 | 64 | 92 | 4.0 | 7.0 | 0.00 | 0.55 | 0.14 | 88 | 1012.2 |
| 20260510160136 | 64 | 91 | 5.0 | 7.0 | 0.00 | 0.55 | 0.14 | 89 | 1012.3 |
| 20260510160011 | 64 | 111 | 5.0 | 7.0 | 0.00 | 0.11 | 0.11 | 87 | 1011.9 |
| 20260510155139 | 64 | 108 | 5.0 | 6.0 | 0.00 | 0.55 | 0.14 | 89 | 1012.4 |
| 20260510154506 | 64 | 101 | 4.0 | 5.0 | 0.00 | 0.11 | 0.11 | 87 | 1012.0 |
| 20260510154133 | 64 | 103 | 4.0 | 5.0 | 0.04 | 0.55 | 0.14 | 87 | 1012.5 |
| 20260510153140 | 64 | 117 | 2.0 | 3.0 | 0.08 | 0.55 | 0.14 | 85 | 1012.4 |
| 20260510153026 | 64 | 106 | 2.0 | 4.0 | 0.01 | 0.11 | 0.11 | 84 | 1012.0 |
| 20260510152131 | 64 | 97 | 2.0 | 4.0 | 0.12 | 0.55 | 0.14 | 86 | 1012.4 |
| 20260510151529 | 63 | 120 | 2.0 | 4.0 | 0.03 | 0.11 | 0.11 | 85 | 1012.0 |
| 20260510151139 | 64 | 101 | 2.0 | 4.0 | 0.16 | 0.55 | 0.14 | 86 | 1012.5 |
| 20260510150131 | 64 | 133 | 0.0 | 2.0 | 0.20 | 0.55 | 0.14 | 86 | 1012.7 |
| 20260510150022 | 63 | 132 | 0.0 | 2.0 | 0.03 | 0.11 | 0.11 | 85 | 1012.3 |
| 20260510145131 | 64 | 166 | 1.0 | 2.0 | 0.24 | 0.55 | 0.14 | 86 | 1012.9 |
| 20260510144517 | 63 | 98 | 0.0 | 1.0 | 0.06 | 0.11 | 0.11 | 86 | 1012.4 |
| 20260510144152 | 64 | 164 | 0.0 | 1.0 | 0.28 | 0.51 | 0.13 | 87 | 1012.9 |
| 20260510143149 | 64 | 155 | 1.0 | 2.0 | 0.28 | 0.47 | 0.12 | 86 | 1012.9 |
| 20260510143012 | 63 | 158 | 1.0 | 2.0 | 0.05 | 0.09 | 0.09 | 85 | 1012.4 |
| 20260510142133 | 64 | 192 | 0.0 | 4.0 | 0.28 | 0.43 | 0.11 | 86 | 1012.9 |
| 20260510141513 | 64 | 195 | 1.0 | 4.0 | 0.05 | 0.07 | 0.07 | 86 | 1012.5 |
| 20260510141141 | 64 | 167 | 1.0 | 3.0 | 0.28 | 0.39 | 0.10 | 86 | 1012.9 |
| 20260510140127 | 65 | 98 | 0.0 | 2.0 | 0.24 | 0.35 | 0.09 | 87 | 1012.9 |
| 20260510140027 | 64 | 106 | 0.0 | 2.0 | 0.04 | 0.07 | 0.07 | 86 | 1012.5 |
| 20260510135128 | 65 | 126 | 0.0 | 1.0 | 0.24 | 0.31 | 0.08 | 86 | 1013.0 |
| 20260510134524 | 65 | 157 | 0.0 | 1.0 | 0.03 | 0.04 | 0.04 | 84 | 1012.6 |
| 20260510134202 | 65 | 160 | 0.0 | 1.0 | 0.16 | 0.24 | 0.06 | 84 | 1013.0 |
| 20260510133127 | 65 | 158 | 0.0 | 2.0 | 0.16 | 0.20 | 0.05 | 83 | 1013.1 |
| 20260510133024 | 65 | 158 | 0.0 | 2.0 | 0.03 | 0.03 | 0.03 | 82 | 1012.7 |
| 20260510132131 | 66 | 159 | 0.0 | 2.0 | 0.12 | 0.16 | 0.04 | 84 | 1013.2 |
| 20260510131519 | 65 | 212 | 0.0 | 4.0 | 0.01 | 0.02 | 0.02 | 82 | 1012.8 |
| 20260510131202 | 65 | 221 | 2.0 | 5.0 | 0.12 | 0.12 | 0.03 | 82 | 1013.1 |
| 20260510130130 | 66 | 189 | 5.0 | 7.0 | 0.12 | 0.12 | 0.03 | 84 | 1013.2 |
| 20260510130018 | 66 | 220 | 3.0 | 8.0 | 0.02 | 0.02 | 0.02 | 86 | 1012.8 |
| 20260510125131 | 66 | 167 | 3.0 | 9.0 | 0.08 | 0.08 | 0.02 | 84 | 1013.1 |
| 20260510124515 | 66 | 240 | 1.0 | 4.0 | 0.01 | 0.01 | 0.01 | 86 | 1012.8 |
| 20260510124147 | 66 | 233 | 1.0 | 4.0 | 0.08 | 0.08 | 0.02 | 86 | 1013.2 |
| 20260510123142 | 66 | 96 | 4.0 | 6.0 | 0.04 | 0.04 | 0.01 | 86 | 1013.2 |
| 20260510123026 | 66 | 110 | 4.0 | 7.0 | 0.00 | 0.00 | 0.00 | 84 | 1012.9 |
| 20260510122150 | 66 | 89 | 6.0 | 8.0 | 0.04 | 0.04 | 0.01 | 84 | 1013.3 |
| 20260510121528 | 66 | 85 | 6.0 | 7.0 | 0.00 | 0.00 | 0.00 | 83 | 1013.0 |
| 20260510121145 | 67 | 90 | 4.0 | 6.0 | 0.00 | 0.00 | 0.00 | 84 | 1013.3 |
| 20260510120130 | 68 | 98 | 5.0 | 6.0 | 0.00 | 0.00 | 0.00 | 82 | 1013.3 |
| 20260510120027 | 67 | 94 | 5.0 | 6.0 | 0.00 | 0.00 | 0.00 | 82 | 1012.9 |
| 20260510115135 | 69 | 4 | 0.0 | 3.0 | 0.00 | 0.00 | 0.00 | 80 | 1013.3 |
| 20260510114528 | 69 | 326 | 1.0 | 4.0 | 0.00 | 0.00 | 0.00 | 79 | 1012.8 |
| 20260510114137 | 70 | 13 | 1.0 | 4.0 | 0.00 | 0.00 | 0.00 | 79 | 1013.2 |
| 20260510113138 | 70 | 266 | 1.0 | 5.0 | 0.00 | 0.00 | 0.00 | 78 | 1013.2 |
| 20260510113021 | 69 | 292 | 1.0 | 5.0 | 0.00 | 0.00 | 0.00 | 77 | 1012.8 |
| 20260510112138 | 69 | 311 | 3.0 | 5.0 | 0.00 | 0.00 | 0.00 | 77 | 1013.2 |
| 20260510111519 | 69 | 261 | 3.0 | 5.0 | 0.00 | 0.00 | 0.00 | 76 | 1012.9 |
| 20260510111124 | 70 | 269 | 1.0 | 4.0 | 0.00 | 0.00 | 0.00 | 77 | 1013.2 |
| 20260510110154 | 70 | 285 | 1.0 | 6.0 | 0.00 | 0.00 | 0.00 | 78 | 1013.3 |
| 20260510110028 | 69 | 255 | 2.0 | 6.0 | 0.00 | 0.00 | 0.00 | 76 | 1012.9 |
| 20260510105126 | 71 | 273 | 3.0 | 5.0 | 0.00 | 0.00 | 0.00 | 77 | 1013.3 |
| 20260510104527 | 70 | 266 | 2.0 | 6.0 | 0.00 | 0.00 | 0.00 | 77 | 1012.9 |
| 20260510104139 | 70 | 218 | 4.0 | 6.0 | 0.00 | 0.00 | 0.00 | 77 | 1013.2 |
| 20260510103133 | 71 | 304 | 3.0 | 6.0 | 0.00 | 0.00 | 0.00 | 75 | 1013.3 |
| 20260510103026 | 71 | 299 | 4.0 | 6.0 | 0.00 | 0.00 | 0.00 | 74 | 1012.9 |
| 20260510102137 | 71 | 212 | 1.0 | 3.0 | 0.00 | 0.00 | 0.00 | 75 | 1013.4 |
| 20260510101524 | 69 | 233 | 0.0 | 3.0 | 0.00 | 0.00 | 0.00 | 78 | 1013.1 |
| 20260510101205 | 69 | 286 | 1.0 | 3.0 | 0.00 | 0.00 | 0.00 | 80 | 1013.5 |
| 20260510100148 | 68 | 198 | 1.0 | 3.0 | 0.00 | 0.00 | 0.00 | 85 | 1013.6 |
| 20260510100004 | 67 | 215 | 1.0 | 3.0 | 0.00 | 0.00 | 0.00 | 85 | 1013.3 |
| 20260510095151 | 67 | 226 | 1.0 | 2.0 | 0.00 | 0.00 | 0.00 | 85 | 1013.7 |
| 20260510094509 | 65 | 287 | 0.0 | 4.0 | 0.00 | 0.00 | 0.00 | 86 | 1013.3 |
| 20260510093150 | 66 | 313 | 1.0 | 6.0 | 0.00 | 0.00 | 0.00 | 87 | 1013.7 |
| 20260510093003 | 65 | 298 | 2.0 | 6.0 | 0.00 | 0.00 | 0.00 | 86 | 1013.3 |
| 20260510092127 | 66 | 307 | 4.0 | 7.0 | 0.00 | 0.00 | 0.00 | 87 | 1013.7 |
| 20260510091509 | 65 | 287 | 4.0 | 6.0 | 0.00 | 0.00 | 0.00 | 87 | 1013.3 |
| 20260510091135 | 66 | 290 | 3.0 | 6.0 | 0.00 | 0.00 | 0.00 | 87 | 1013.7 |
| 20260510090139 | 65 | 278 | 3.0 | 5.0 | 0.00 | 0.00 | 0.00 | 88 | 1013.8 |
| 20260510090010 | 65 | 259 | 4.0 | 5.0 | 0.00 | 0.00 | 0.00 | 87 | 1013.4 |
| 20260510085133 | 65 | 305 | 4.0 | 7.0 | 0.00 | 0.00 | 0.00 | 87 | 1013.7 |
| 20260510084517 | 65 | 283 | 4.0 | 6.0 | 0.00 | 0.00 | 0.00 | 87 | 1013.5 |
| 20260510084143 | 66 | 245 | 4.0 | 6.0 | 0.00 | 0.00 | 0.00 | 87 | 1013.8 |
| 20260510083130 | 66 | 245 | 2.0 | 4.0 | 0.00 | 0.00 | 0.00 | 86 | 1013.8 |
| 20260510083003 | 66 | 217 | 2.0 | 4.0 | 0.00 | 0.00 | 0.00 | 85 | 1013.5 |
| 20260510082139 | 66 | 108 | 0.0 | 1.0 | 0.00 | 0.00 | 0.00 | 84 | 1013.6 |
| 20260510081505 | 65 | 108 | 0.0 | 1.0 | 0.00 | 0.00 | 0.00 | 84 | 1013.2 |
| 20260510081130 | 66 | 108 | 0.0 | 1.0 | 0.00 | 0.00 | 0.00 | 85 | 1013.5 |
| 20260510080130 | 65 | 117 | 1.0 | 2.0 | 0.00 | 0.00 | 0.00 | 86 | 1013.5 |
| 20260510080002 | 65 | 118 | 0.0 | 3.0 | 0.00 | 0.00 | 0.00 | 86 | 1013.2 |
| 20260510075132 | 65 | 89 | 1.0 | 4.0 | 0.00 | 0.00 | 0.00 | 87 | 1013.5 |
| 20260510074512 | 65 | 107 | 3.0 | 5.0 | 0.00 | 0.00 | 0.00 | 86 | 1013.2 |
| 20260510074128 | 65 | 122 | 3.0 | 8.0 | 0.00 | 0.00 | 0.00 | 86 | 1013.6 |
| 20260510073156 | 65 | 104 | 6.0 | 9.0 | 0.00 | 0.00 | 0.00 | 87 | 1013.7 |
| 20260510073018 | 65 | 88 | 6.0 | 9.0 | 0.00 | 0.00 | 0.00 | 87 | 1013.3 |
| 20260510072148 | 65 | 93 | 6.0 | 8.0 | 0.00 | 0.00 | 0.00 | 87 | 1013.7 |
| 20260510071509 | 64 | 94 | 7.0 | 9.0 | 0.00 | 0.00 | 0.00 | 86 | 1013.3 |
| 20260510071136 | 65 | 111 | 7.0 | 9.0 | 0.00 | 0.00 | 0.00 | 87 | 1013.8 |
| 20260510070126 | 65 | 101 | 4.0 | 7.0 | 0.00 | 0.00 | 0.00 | 87 | 1013.8 |
| 20260510070008 | 64 | 122 | 4.0 | 7.0 | 0.00 | 0.00 | 0.00 | 87 | 1013.4 |
| 20260510065128 | 65 | 89 | 5.0 | 7.0 | 0.00 | 0.00 | 0.00 | 87 | 1013.9 |
| 20260510064504 | 64 | 113 | 3.0 | 5.0 | 0.00 | 0.00 | 0.00 | 88 | 1013.6 |
| 20260510064133 | 64 | 95 | 1.0 | 3.0 | 0.00 | 0.00 | 0.00 | 88 | 1014.0 |
| 20260510063141 | 64 | 12 | 1.0 | 6.0 | 0.00 | 0.00 | 0.00 | 89 | 1013.8 |
| 20260510063016 | 63 | 12 | 1.0 | 6.0 | 0.00 | 0.00 | 0.00 | 88 | 1013.3 |
| 20260510062149 | 63 | 18 | 2.0 | 8.0 | 0.00 | 0.04 | 0.00 | 89 | 1013.4 |
| 20260510061516 | 62 | 18 | 4.0 | 8.0 | 0.00 | 0.00 | 0.00 | 89 | 1013.1 |
| 20260510061143 | 63 | 25 | 5.0 | 8.0 | 0.00 | 0.04 | 0.00 | 89 | 1013.4 |
| 20260510060133 | 61 | 3 | 2.0 | 6.0 | 0.00 | 0.04 | 0.00 | 89 | 1013.4 |
| 20260510060033 | 61 | 5 | 2.0 | 6.0 | 0.00 | 0.00 | 0.00 | 89 | 1013.1 |
| 20260510055143 | 61 | 37 | 4.0 | 5.0 | 0.00 | 0.04 | 0.00 | 89 | 1013.5 |
| 20260510054510 | 60 | 37 | 3.0 | 4.0 | 0.00 | 0.00 | 0.00 | 88 | 1013.2 |
| 20260510054133 | 60 | 327 | 1.0 | 2.0 | 0.00 | 0.04 | 0.00 | 89 | 1013.7 |
| 20260510053130 | 60 | 20 | 1.0 | 4.0 | 0.00 | 0.04 | 0.00 | 88 | 1013.9 |
| 20260510053011 | 59 | 8 | 0.0 | 4.0 | 0.00 | 0.00 | 0.00 | 88 | 1013.5 |
| 20260510052135 | 60 | 354 | 1.0 | 3.0 | 0.00 | 0.04 | 0.00 | 88 | 1013.8 |
| 20260510051506 | 59 | 352 | 1.0 | 3.0 | 0.00 | 0.00 | 0.00 | 87 | 1013.4 |
| 20260510051133 | 60 | 18 | 2.0 | 3.0 | 0.00 | 0.04 | 0.00 | 87 | 1013.9 |
| 20260510050141 | 59 | 345 | 0.0 | 3.0 | 0.00 | 0.04 | 0.00 | 87 | 1014.1 |
| 20260510050018 | 59 | 346 | 0.0 | 3.0 | 0.00 | 0.00 | 0.00 | 87 | 1013.8 |
| 20260510045153 | 59 | 269 | 2.0 | 3.0 | 0.00 | 0.04 | 0.00 | 87 | 1014.3 |
| 20260510044524 | 58 | 295 | 1.0 | 4.0 | 0.00 | 0.00 | 0.00 | 88 | 1014.0 |
| 20260510044132 | 59 | 259 | 2.0 | 5.0 | 0.00 | 0.04 | 0.00 | 88 | 1014.5 |
| 20260510043138 | 59 | 255 | 5.0 | 8.0 | 0.00 | 0.04 | 0.00 | 88 | 1014.6 |
| 20260510043026 | 58 | 243 | 5.0 | 8.0 | 0.00 | 0.00 | 0.00 | 88 | 1014.3 |
| 20260510042127 | 59 | 257 | 0.0 | 2.0 | 0.00 | 0.04 | 0.00 | 87 | 1014.5 |
| 20260510041517 | 58 | 38 | 0.0 | 2.0 | 0.00 | 0.00 | 0.00 | 86 | 1014.1 |
| 20260510041138 | 59 | 38 | 0.0 | 2.0 | 0.00 | 0.04 | 0.00 | 86 | 1014.4 |
| 20260510040149 | 59 | 227 | 0.0 | 2.0 | 0.00 | 0.04 | 0.00 | 86 | 1014.5 |
| 20260510040010 | 59 | 227 | 0.0 | 2.0 | 0.00 | 0.00 | 0.00 | 85 | 1014.1 |
| 20260510035131 | 60 | 207 | 0.0 | 1.0 | 0.00 | 0.04 | 0.00 | 85 | 1014.5 |
| 20260510034518 | 59 | 207 | 0.0 | 2.0 | 0.00 | 0.00 | 0.00 | 85 | 1014.0 |
| 20260510034157 | 59 | 207 | 0.0 | 2.0 | 0.00 | 0.04 | 0.00 | 87 | 1014.4 |
| 20260510033127 | 59 | 209 | 1.0 | 1.0 | 0.00 | 0.04 | 0.00 | 86 | 1014.4 |
| 20260510033023 | 58 | 209 | 0.0 | 1.0 | 0.00 | 0.00 | 0.00 | 86 | 1014.0 |
| 20260510032128 | 59 | 359 | 0.0 | 1.0 | 0.00 | 0.04 | 0.00 | 87 | 1014.5 |
| 20260510031522 | 58 | 359 | 0.0 | 2.0 | 0.00 | 0.00 | 0.00 | 87 | 1014.1 |
| 20260510031139 | 58 | 359 | 1.0 | 3.0 | 0.00 | 0.04 | 0.00 | 88 | 1014.5 |
| 20260510030143 | 59 | 19 | 2.0 | 5.0 | 0.00 | 0.04 | 0.00 | 87 | 1014.6 |
| 20260510030025 | 58 | 6 | 3.0 | 5.0 | 0.00 | 0.00 | 0.00 | 87 | 1014.2 |
| 20260510025130 | 58 | 13 | 2.0 | 4.0 | 0.00 | 0.04 | 0.00 | 87 | 1014.6 |
| 20260510024520 | 58 | 107 | 0.0 | 0.0 | 0.00 | 0.00 | 0.00 | 86 | 1014.2 |
| 20260510024204 | 58 | 107 | 0.0 | 0.0 | 0.00 | 0.04 | 0.00 | 87 | 1014.6 |
| 20260510023129 | 58 | 107 | 0.0 | 0.0 | 0.00 | 0.04 | 0.00 | 87 | 1014.6 |
| 20260510023015 | 58 | 106 | 0.0 | 0.0 | 0.00 | 0.00 | 0.00 | 87 | 1014.2 |
| 20260510022143 | 58 | 106 | 0.0 | 0.0 | 0.00 | 0.04 | 0.00 | 86 | 1014.6 |
| 20260510021512 | 58 | 106 | 0.0 | 0.0 | 0.00 | 0.00 | 0.00 | 85 | 1014.3 |
| 20260510021136 | 59 | 106 | 0.0 | 0.0 | 0.00 | 0.04 | 0.00 | 86 | 1014.7 |
| 20260510020134 | 59 | 106 | 0.0 | 0.0 | 0.00 | 0.04 | 0.00 | 85 | 1014.7 |
| 20260510020026 | 58 | 113 | 0.0 | 0.0 | 0.00 | 0.00 | 0.00 | 85 | 1014.3 |
| 20260510015144 | 59 | 160 | 0.0 | 0.0 | 0.00 | 0.04 | 0.00 | 85 | 1014.7 |
| 20260510014526 | 59 | 160 | 0.0 | 0.0 | 0.00 | 0.00 | 0.00 | 84 | 1014.3 |
| 20260510014136 | 59 | 168 | 0.0 | 0.0 | 0.00 | 0.04 | 0.00 | 85 | 1014.7 |
| 20260510013152 | 59 | 205 | 0.0 | 0.0 | 0.00 | 0.04 | 0.00 | 85 | 1014.8 |
| 20260510013023 | 59 | 205 | 0.0 | 0.0 | 0.00 | 0.00 | 0.00 | 84 | 1014.4 |
| 20260510012134 | 59 | 205 | 0.0 | 0.0 | 0.00 | 0.04 | 0.00 | 84 | 1014.9 |
| 20260510011523 | 59 | 205 | 0.0 | 0.0 | 0.00 | 0.00 | 0.00 | 84 | 1014.6 |
| 20260510011141 | 59 | 205 | 0.0 | 0.0 | 0.00 | 0.04 | 0.00 | 84 | 1015.0 |
| 20260510010131 | 60 | 205 | 0.0 | 2.0 | 0.00 | 0.04 | 0.00 | 84 | 1015.1 |
| 20260510010019 | 59 | 204 | 0.0 | 2.0 | 0.00 | 0.00 | 0.00 | 83 | 1014.8 |
| 20260510005219 | 60 | 207 | 1.0 | 4.0 | 0.00 | 0.04 | 0.00 | 83 | 1015.2 |
| 20260510004514 | 60 | 189 | 2.0 | 4.0 | 0.00 | 0.00 | 0.00 | 82 | 1015.1 |
| 20260510004136 | 61 | 211 | 1.0 | 4.0 | 0.00 | 0.04 | 0.00 | 82 | 1015.4 |
| 20260510003139 | 62 | 203 | 1.0 | 2.0 | 0.00 | 0.04 | 0.00 | 80 | 1015.2 |
| 20260510003021 | 61 | 181 | 1.0 | 2.0 | 0.00 | 0.00 | 0.00 | 79 | 1014.9 |
| 20260510002126 | 62 | 136 | 0.0 | 1.0 | 0.00 | 0.04 | 0.00 | 79 | 1015.2 |
| 20260510001510 | 62 | 127 | 0.0 | 1.0 | 0.00 | 0.00 | 0.00 | 79 | 1014.7 |
| 20260510001133 | 63 | 149 | 0.0 | 1.0 | 0.00 | 0.04 | 0.00 | 79 | 1015.2 |
| 20260510000138 | 63 | 91 | 0.0 | 2.0 | 0.00 | 0.04 | 0.00 | 79 | 1015.2 |
| 20260510000006 | 62 | 91 | 0.0 | 2.0 | 0.00 | 0.00 | 0.00 | 78 | 1014.8 |
| 20260509235132 | 63 | 89 | 1.0 | 2.0 | 0.00 | 0.04 | 0.00 | 79 | 1015.2 |
| 20260509234506 | 62 | 101 | 2.0 | 2.0 | 0.00 | 0.00 | 0.00 | 79 | 1014.9 |
| 20260509234146 | 63 | 102 | 1.0 | 3.0 | 0.00 | 0.04 | 0.00 | 79 | 1015.3 |
| 20260509233129 | 63 | 117 | 2.0 | 5.0 | 0.00 | 0.04 | 0.00 | 79 | 1015.5 |
| 20260509233020 | 62 | 124 | 2.0 | 5.0 | 0.00 | 0.00 | 0.00 | 78 | 1015.2 |
| 20260509232136 | 63 | 103 | 3.0 | 4.0 | 0.00 | 0.04 | 0.00 | 78 | 1015.5 |
| 20260509231518 | 62 | 97 | 2.0 | 3.0 | 0.00 | 0.00 | 0.00 | 78 | 1015.1 |
| 20260509231205 | 62 | 101 | 2.0 | 3.0 | 0.00 | 0.04 | 0.00 | 78 | 1015.4 |
| 20260509230142 | 63 | 94 | 3.0 | 4.0 | 0.00 | 0.04 | 0.00 | 77 | 1015.4 |
| 20260509230014 | 63 | 91 | 3.0 | 5.0 | 0.00 | 0.00 | 0.00 | 76 | 1015.1 |
| 20260509225128 | 63 | 93 | 4.0 | 6.0 | 0.00 | 0.04 | 0.00 | 76 | 1015.5 |
| 20260509224513 | 62 | 76 | 3.0 | 5.0 | 0.00 | 0.00 | 0.00 | 77 | 1015.2 |
| 20260509224134 | 63 | 79 | 1.0 | 4.0 | 0.00 | 0.04 | 0.00 | 78 | 1015.6 |
| 20260509223134 | 63 | 82 | 3.0 | 3.0 | 0.00 | 0.04 | 0.00 | 78 | 1015.5 |
| 20260509223007 | 62 | 86 | 2.0 | 3.0 | 0.00 | 0.00 | 0.00 | 78 | 1015.2 |
| 20260509222138 | 63 | 83 | 2.0 | 3.0 | 0.00 | 0.04 | 0.00 | 78 | 1015.6 |
| 20260509221506 | 62 | 82 | 2.0 | 3.0 | 0.00 | 0.00 | 0.00 | 79 | 1015.4 |
| 20260509221155 | 63 | 91 | 2.0 | 3.0 | 0.00 | 0.04 | 0.00 | 79 | 1015.6 |
| 20260509220126 | 63 | 96 | 2.0 | 4.0 | 0.00 | 0.04 | 0.00 | 80 | 1015.6 |
| 20260509220028 | 62 | 96 | 2.0 | 4.0 | 0.00 | 0.00 | 0.00 | 79 | 1015.3 |
| 20260509215155 | 63 | 76 | 2.0 | 5.0 | 0.00 | 0.04 | 0.00 | 80 | 1015.7 |
| 20260509214522 | 62 | 98 | 3.0 | 5.0 | 0.00 | 0.00 | 0.00 | 80 | 1015.4 |
| 20260509214137 | 63 | 85 | 4.0 | 4.0 | 0.00 | 0.04 | 0.00 | 80 | 1015.8 |
| 20260509213144 | 62 | 94 | 3.0 | 6.0 | 0.00 | 0.04 | 0.00 | 81 | 1015.9 |
| 20260509213016 | 62 | 94 | 4.0 | 6.0 | 0.00 | 0.00 | 0.00 | 81 | 1015.5 |
| 20260509212128 | 63 | 81 | 4.0 | 6.0 | 0.00 | 0.04 | 0.00 | 81 | 1015.9 |
| 20260509211513 | 62 | 77 | 2.0 | 4.0 | 0.00 | 0.00 | 0.00 | 81 | 1015.7 |
| 20260509211140 | 63 | 60 | 1.0 | 3.0 | 0.00 | 0.04 | 0.00 | 81 | 1016.1 |
| 20260509210143 | 63 | 84 | 3.0 | 3.0 | 0.00 | 0.04 | 0.00 | 80 | 1016.1 |
| 20260509210010 | 62 | 84 | 3.0 | 3.0 | 0.00 | 0.00 | 0.00 | 80 | 1015.8 |
| 20260509205143 | 63 | 101 | 3.0 | 4.0 | 0.00 | 0.04 | 0.00 | 81 | 1016.2 |
| 20260509204505 | 63 | 104 | 3.0 | 4.0 | 0.00 | 0.00 | 0.00 | 80 | 1015.8 |
| 20260509204134 | 63 | 101 | 3.0 | 4.0 | 0.00 | 0.04 | 0.00 | 81 | 1016.1 |
| 20260509203205 | 62 | 87 | 2.0 | 3.0 | 0.00 | 0.04 | 0.00 | 81 | 1016.2 |
| 20260509203037 | 62 | 84 | 2.0 | 2.0 | 0.00 | 0.00 | 0.00 | 81 | 1015.9 |
| 20260509202128 | 62 | 110 | 1.0 | 2.0 | 0.00 | 0.04 | 0.00 | 81 | 1016.2 |
| 20260509201523 | 62 | 108 | 1.0 | 5.0 | 0.00 | 0.00 | 0.00 | 81 | 1015.8 |
| 20260509201139 | 63 | 103 | 2.0 | 5.0 | 0.00 | 0.04 | 0.00 | 81 | 1016.1 |
| 20260509200141 | 63 | 88 | 5.0 | 5.0 | 0.00 | 0.04 | 0.00 | 81 | 1016.1 |
| 20260509200020 | 62 | 84 | 5.0 | 5.0 | 0.00 | 0.00 | 0.00 | 81 | 1015.7 |
| 20260509195132 | 62 | 74 | 1.0 | 3.0 | 0.00 | 0.04 | 0.00 | 80 | 1016.0 |